Weather History for Shaw AFB, SC

Change the Weather History Date:

Wednesday, February 27, 2013

  Actual Average Record
Temperature  
Mean Temperature 52 °F -  
Max Temperature 62 °F 60 °F 86 °F (1997)
Min Temperature 41 °F 38 °F 24 °F (2006)
Degree Days  
Heating Degree Days 14    
Growing Degree Days 2 (Base 50)    
Moisture  
Dew Point 34 °F    
Average Humidity 53    
Maximum Humidity 85    
Minimum Humidity 32    
Precipitation  
Precipitation 0.00 in - - ()
Sea Level Pressure  
Sea Level Pressure 29.80 in    
Wind  
Wind Speed 11 mph (WSW)    
Max Wind Speed 16 mph    
Max Gust Speed 23 mph    
Visibility 10 miles    
Events      
Averages and records for this station are not official NWS values.
T = Trace of Precipitation, MM = Missing Value Source: NWS Daily Summary

Daily Weather History Graph

Daily Weather History Graph

Search for Another Location

Airport:

Trip Planner

Search our weather history database for the weather conditions in past years. The results will help you decide how hot, cold, wet, or windy it might be!

Date:

Astronomy

Feb. 27, 2013 Rise Set
Actual Time 6:52 AM EST 6:16 PM EST
Civil Twilight 6:27 AM EST 6:41 PM EST
Nautical Twilight 5:58 AM EST 7:10 PM EST
Astronomical Twilight 5:29 AM EST 7:39 PM EST
Moon 8:27 PM EST (2/27) 7:34 AM EST (2/27)
Length of Visible Light 12h 14m
Length of Day
11h 24m
Waning Gibbous, 96% of the Moon is Illuminated
Feb 27
Waning Gibbous
Mar 4
Last Quarter
Mar 11
New
Mar 19
First Quarter
Mar 27
Full

Hourly Weather History & Observations

Time (EST) Temp. Windchill Dew Point Humidity Pressure Visibility Wind Dir Wind Speed Gust Speed Precip Events Conditions
12:58 AM 46.2 °F 41.7 °F 41.9 °F 85% 29.74 in 10.0 mi West 9.2 mph - N/A   Clear
1:58 AM 46.2 °F 41.7 °F 40.5 °F 80% 29.75 in 10.0 mi WSW 9.2 mph - N/A   Clear
2:58 AM 45.1 °F 39.9 °F 36.9 °F 73% 29.75 in 10.0 mi WSW 10.4 mph - N/A   Clear
3:58 AM 44.2 °F 38.0 °F 35.8 °F 72% 29.75 in 10.0 mi WSW 12.7 mph - N/A   Clear
4:58 AM 43.5 °F 37.5 °F 35.1 °F 72% 29.77 in 10.0 mi SW 11.5 mph - N/A   Clear
5:58 AM 43.3 °F 37.2 °F 34.0 °F 70% 29.79 in 10.0 mi WSW 11.5 mph - N/A   Scattered Clouds
6:58 AM 41.9 °F 35.9 °F 32.9 °F 70% 29.80 in 10.0 mi SW 10.4 mph - N/A   Clear
7:58 AM 43.2 °F 36.2 °F 33.1 °F 68% 29.84 in 10.0 mi SW 13.8 mph 21.9 mph N/A   Clear
8:58 AM 46.6 °F - 32.7 °F 59% 29.86 in 10.0 mi WSW 16.1 mph 23.0 mph N/A   Clear
9:58 AM 48.9 °F - 31.8 °F 52% 29.86 in 10.0 mi West 11.5 mph - N/A   Clear
10:58 AM 51.8 °F - 31.6 °F 46% 29.86 in 10.0 mi West 10.4 mph - N/A   Clear
11:58 AM 54.3 °F - 31.5 °F 42% 29.85 in 10.0 mi West 10.4 mph 19.6 mph N/A   Clear
12:58 PM 56.8 °F - 33.1 °F 41% 29.83 in 10.0 mi WSW 9.2 mph - N/A   Clear
1:55 PM 59.0 °F - 32.0 °F 36% 29.80 in 10.0 mi WSW 15.0 mph 18.4 mph N/A   Clear
1:58 PM 59.5 °F - 31.6 °F 35% 29.81 in 10.0 mi SW 15.0 mph 18.4 mph N/A   Clear
2:55 PM 60.8 °F - 32.0 °F 34% 29.78 in 10.0 mi SW 13.8 mph 18.4 mph N/A   Clear
3:55 PM 62.6 °F - 32.0 °F 32% 29.76 in 10.0 mi SW 15.0 mph 19.6 mph N/A   Clear
4:55 PM 62.6 °F - 32.0 °F 32% 29.77 in 10.0 mi SSW 11.5 mph - N/A   Partly Cloudy
5:55 PM 59.0 °F - 32.0 °F 36% 29.77 in 10.0 mi WSW 9.2 mph - N/A   Clear
6:55 PM 55.2 °F - 33.3 °F 43% 29.79 in 10.0 mi SW 8.1 mph - N/A   Partly Cloudy
6:58 PM 55.2 °F - 33.3 °F 43% 29.79 in 10.0 mi WSW 8.1 mph - N/A   Clear
7:55 PM 51.8 °F - 35.6 °F 54% 29.78 in 10.0 mi SW 9.2 mph - N/A   Clear